Regional Weather Roundup
Issued by NWS

Home | Current Version | Previous Version | Graphics & Text | Print | Product List | Glossary On
Versions: 1 2 3 4 5 6 7 8 9 10 11 12 13 14 15 16 17 18 19 20 21 22 23 24 25 26 27 28 29 30 31 32 33 34 35 36 37 38 39 40 41 42 43 44 45 46 47 48 49 50
000
ASUS43 KTOP 280559
RWRKS

WEATHER ROUNDUP FOR KANSAS
NATIONAL WEATHER SERVICE GOODLAND KS
1200 AM CST WED JAN 28 2015

NOTE:  "FAIR" INDICATES FEW OR NO CLOUDS BELOW 12,000 FEET WITH NO
SIGNIFICANT WEATHER AND/OR OBSTRUCTIONS TO VISIBILITY.

KSZ001>006-013>018-027>032-041>047-280700-
NORTHWEST KANSAS

CITY           SKY/WX    TMP DP  RH WIND       PRES   REMARKS
GOODLAND       PTCLDY    47  29  49 SW10      29.92F
6HR MIN TEMP:  34; 6HR MAX TEMP:  61;

HAYS           CLEAR     50  28  43 SW6       29.93S
HILL CITY      CLEAR     38  25  59 SW3       29.91S
6HR MIN TEMP:  38; 6HR MAX TEMP:  71;

RUSSELL        FAIR      49  32  52 SW12      29.91S
6HR MIN TEMP:  48; 6HR MAX TEMP:  67;

$$

KSZ061>065-074>080-084>089-280700-
SOUTHWEST KANSAS

CITY           SKY/WX    TMP DP  RH WIND       PRES   REMARKS
DODGE CITY     CLEAR     49  31  49 SW10      29.98F
6HR MIN TEMP:  46; 6HR MAX TEMP:  69;

ELKHART          N/A     51  32  48 SW13        N/A
GARDEN CITY    CLEAR     44  33  65 SW8       29.96F
6HR MIN TEMP:  43; 6HR MAX TEMP:  63;

LIBERAL        CLEAR     43  30  61 SW12      30.02S
$$

KSZ066>073-081>083-090>101-280700-
SOUTHEAST KANSAS

CITY           SKY/WX    TMP DP  RH WIND       PRES   REMARKS
CHANUTE        CLEAR     43  31  62 SE9       30.03S
6HR MIN TEMP:  43; 6HR MAX TEMP:  53;

COFFEYVILLE    CLEAR     45  33  63 S6        30.04S
6HR MIN TEMP:  39; 6HR MAX TEMP:  58;

HUTCHINSON     PTCLDY    43  33  68 CALM      29.96S
6HR MIN TEMP:  38; 6HR MAX TEMP:  61;

MEDICINE LODGE   N/A     54  32  43 S5        29.98R
NEWTON         PTCLDY    55  34  44 SW15      29.98S
PARSONS        CLEAR     49  33  54 SE3       30.04S
6HR MIN TEMP:  47; 6HR MAX TEMP:  58;

WICHITA INTL   PTCLDY    46  34  62 S8        29.98R
6HR MIN TEMP:  46; 6HR MAX TEMP:  64;

WICHITA JABRA  PTCLDY    56  36  47 SW14      29.97S
6HR MIN TEMP:  52; 6HR MAX TEMP:  62;

WINFIELD       CLEAR     51  31  46 S8        30.00F
6HR MIN TEMP:  51; 6HR MAX TEMP:  63;

$$

KSZ007>012-019>026-033>040-048>060-102>105-280700-
NORTHEAST KANSAS

CITY           SKY/WX    TMP DP  RH WIND       PRES   REMARKS
CONCORDIA      CLEAR     43  34  70 SE6       29.91S
6HR MIN TEMP:  42; 6HR MAX TEMP:  58;

EMPORIA        CLEAR     41  32  70 SE9       29.98S
6HR MIN TEMP:  41; 6HR MAX TEMP:  55;

LAWRENCE       CLEAR     39  30  70 SE10      30.03F WCI  32
6HR MIN TEMP:  38; 6HR MAX TEMP:  48;

MANHATTAN      CLEAR     45  33  63 E5        29.96F
6HR MIN TEMP:  43; 6HR MAX TEMP:  57;

OLATHE IND     CLEAR     42  30  62 SE12      30.04F
6HR MIN TEMP:  41; 6HR MAX TEMP:  49;

OLATHE EXE     CLEAR     43  30  60 SE10      30.04F
6HR MIN TEMP:  43; 6HR MAX TEMP:  50;

SALINA         FAIR      48  35  60 CALM      29.92S
6HR MIN TEMP:  48; 6HR MAX TEMP:  63;

TOPEKA BILLARD CLEAR     42  29  59 E8        30.01F
6HR MIN TEMP:  42; 6HR MAX TEMP:  50;

TOPEKA FORBES  CLEAR     44  30  57 SE12      29.99F
6HR MIN TEMP:  44; 6HR MAX TEMP:  52;

$$


USA.gov is the U.S. government's official web portal to all federal, state and local government web resources and services.